Regional Weather Roundup
Issued by NWS Boston, MA

Current Version | Previous Version | Text Only | Print | Product List | Glossary Off
Versions: 1 2 3 4 5 6 7 8 9 10 11 12 13 14 15 16 17 18 19 20 21 22 23 24 25 26 27 28 29 30 31 32 33 34 35 36 37 38 39 40 41 42 43 44 45 46 47 48 49 50
000 ASUS41 KBOX 221210 RWRBOX REGIONAL WEATHER ROUNDUP NATIONAL WEATHER SERVICE BOSTON/NORTON MA 800 AM EDT SAT SEP 22 2018 NOTE: "FAIR" INDICATES FEW OR NO CLOUDS BELOW 12,000 FEET WITH NO SIGNIFICANT WEATHER AND/OR OBSTRUCTIONS TO VISIBILITY. MAZALL-221300- EASTERN MASSACHUSETTS CITY SKY/WX TMP DP RH WIND PRES REMARKS BOSTON FAIR 72 54 53 W17G26 29.94R 6HR MIN TEMP: 70; 6HR MAX TEMP: 73; 6HR PCP: 0.03; BEVERLY FAIR 70 59 68 W15G21 29.93R LAWRENCE FAIR 71 54 54 W16G23 29.96R BEDFORD FAIR 69 52 54 W12G21 29.96R BLUE HILL NOT AVBL NORWOOD FAIR 70 54 56 W13 29.96R MARSHFIELD FAIR 72 61 68 W10G22 29.94R PLYMOUTH FAIR 72 67 84 W12 29.96R TAUNTON FAIR 71 61 70 W15G22 29.97R NEW BEDFORD FAIR 72 65 78 W14G24 29.96R $$ MAZALL-221300- CAPE COD AND THE ISLANDS CITY SKY/WX TMP DP RH WIND PRES REMARKS FALMOUTH FAIR 72 68 88 W16G24 29.96R HYANNIS FAIR 74 69 85 W14G21 29.94R CHATHAM PTSUNNY 74 69 85 W7 29.96R PROVINCETOWN FAIR 71 66 84 W17 29.94R NANTUCKET CLOUDY 71 67 87 W16G28 29.97R MARTHAS VNYRD FAIR 73 70 90 W10 29.96R $$ MAZALL-221300- CENTRAL AND WESTERN MASSACHUSETTS CITY SKY/WX TMP DP RH WIND PRES REMARKS WORCESTER FAIR 60 51 72 W17G25 30.00R 6HR MIN TEMP: 60; 6HR MAX TEMP: 66; 6HR PCP: 0.10; FITCHBURG FAIR 64 52 64 NW15G26 29.99R ORANGE FAIR 64 52 64 NW14G22 30.02R SPRINGFIELD NOT AVBL WESTFIELD FAIR 64 52 64 NW14G22 30.05R NORTH ADAMS FAIR 59 48 67 W15G22 30.06R PITTSFIELD FAIR 58 47 66 NW10G24 30.07R $$ RIZALL-221300- RHODE ISLAND CITY SKY/WX TMP DP RH WIND PRES REMARKS PROVIDENCE PTSUNNY 69 54 58 NW13G26 30.00R 6HR MIN TEMP: 69; 6HR MAX TEMP: 72; 6HR PCP: 0.01; NEWPORT PTSUNNY 71 62 73 NW14G24 29.98R BLOCK ISLAND CLOUDY 72 70 93 W7 30.00R SMITHFIELD FAIR 65 58 78 NW10 30.00R WESTERLY FAIR 73 65 75 NW13G22 29.99R $$ CTZALL-221300- CONNECTICUT CITY SKY/WX TMP DP RH WIND PRES REMARKS BRADLEY INTL FAIR 66 54 65 N13G18 30.04R 6HR MIN TEMP: 64; 6HR MAX TEMP: 71; 6HR PCP: 0.04; HARTFORD FAIR 67 56 67 N13G21 30.03R BRIDGEPORT FAIR 71 61 70 NW12 30.02R DANBURY FAIR 66 56 70 NW7G18 30.06R GROTON FAIR 70 61 73 NW21G29 30.00R NEW HAVEN FAIR 70 58 65 N13G22 30.02R CHESTER NOT AVBL MERIDEN FAIR 69 57 65 N8 30.03R WILLIMANTIC FAIR 64 57 78 NW9 30.03R OXFORD FAIR 64 57 78 N13 30.05R $$ MEZ002-015-021-024-NHZ003-005-008-011-012-014-VTZ005-008-221300- NORTHERN NEW ENGLAND CITY SKY/WX TMP DP RH WIND PRES REMARKS PORTLAND ME PTSUNNY 66 52 60 NW15G21 29.91R 6HR MIN TEMP: 66; 6HR MAX TEMP: 71; 6HR PCP: 0.01; BANGOR ME PTSUNNY 64 54 69 NW8 29.85R CONCORD NH FAIR 66 50 56 NW18G29 29.95R MANCHESTER NH PTSUNNY 69 49 48 NW13 29.95R NASHUA NH FAIR 68 55 63 NW10G20 29.97R PORTSMOUTH NH PTSUNNY 69 52 54 W15 29.91R JAFFREY NH FAIR 63 51 65 VRB6G21 30.02R KEENE NH FAIR N/A N/A N/A NW8G17 30.02R BURLINGTON VT PTSUNNY 55 43 63 NW25G33 30.13R MT. WASHINGTON FOG 36 36 100 NW70G83 N/A VSB 1/16WCI 17 $$ NYZ052-076-221300- EASTERN NEW YORK CITY SKY/WX TMP DP RH WIND PRES REMARKS ALBANY PTSUNNY 61 48 62 NW17G24 30.10R 6HR MIN TEMP: 61; 6HR MAX TEMP: 71; NEW YORK CITY PTSUNNY 73 58 59 NW15G26 30.05R 6HR MIN TEMP: 73; 6HR MAX TEMP: 76; $$ ANZALL-221300- MARINE OBSERVATIONS STATION/POSITION TIME TEMP WIND PRES VSBY WAVE AIR SEA DIR/SP/G HT/PER (UTC) (F) (DEG/KT/KT) (MB) (MI) (FT/S) BOSTON BUOY 1150 70 66 260/ 17/ 21 1012.5R 4/11 BUZZARDS BAY 1100 70 250/ 21/ 22 1014.1R NANTUCKET SOUND 1150 72 70 260/ 19/ 23 1014.2R 3/ 3 MASS BAY-STELLWA 1104 67 64 250/ 16/ 17 1010.2R 1 7/8 5/11 ISLE OF SHOALS 1200 69 300/ 26/ 29 1012.1R S OF BLOCK IS 1143 67 N/A 7/ 6 $$ ......................KEY......................... SKY/WX - SKY CONDITION/PRESENT WEATHER TMP - TEMPERATURE IN FAHRENHEIT DWPT - DEWPOINT IN FAHRENHEIT RH - RELATIVE HUMIDITY IN PERCENT WIND - DIRECTION AND SPEED IN MPH PRES - MEAN SEA LEVEL PRESSURE IN INCHES OF HG WCI - WIND CHILL INDEX VSB - VISIBILITY IN MILES HX - HEAT INDEX TC - TEMPERATURE IN CELSIUS VRB - VARIABLE WIND DIRECTION N/A - NOT AVAILABLE

USA.gov is the U.S. government's official web portal to all federal, state and local government web resources and services.